SCP
2 2 2 2 1 0 0 0 1 1 0 0 0 0 0 0 0 0 0 0 0 0 1 1 1 1 1 1 1 1 1 1 1 1 1 1 1 1 1 1 1 0 0 0 0 0 1 1 1
2 2 2 2 1 0 0 0 1 1 1 0 0 0 0 0 0 0 0 0 0 0 0 1 1 1 1 1 1 1 1 1 1 1 1 1 1 1 1 1 1 0 0 0 1 1 1 1 1
2 2 2 2 1 0 0 0 1 1 1 0 0 0 0 0 0 0 0 0 0 0 0 1 1 1 1 1 1 1 1 1 1 1 1 1 1 1 1 1 1 1 1 1 1 1 1 1 1
2 2 2 1 1 0 0 1 1 1 1 1 1 1 0 0 0 1 1 1 0 0 0 1 1 1 1 1 1 1 1 1 1 0 0 1 1 1 0 0 1 1 1 1 1 1 0 0 0
2 2 1 1 1 0 1 1 1 1 1 1 1 1 1 0 1 1 1 1 1 1 1 1 1 1 1 1 1 1 1 1 1 0 0 0 1 1 1 0 0 1 1 0 0 0 0 0 0
2 1 1 1 0 0 1 1 1 1 1 1 1 1 1 1 1 1 1 1 1 1 1 1 1 1 1 1 1 1 1 0 0 0 0 0 1 1 1 1 1 1 1 1 0 0 0 0 1
2 1 1 0 0 0 1 1 1 1 1 1 1 1 1 1 1 1 1 1 1 1 1 1 1 1 1 1 1 1 1 1 1 1 0 0 0 1 1 1 1 1 1 1 1 0 0 1 1
2 1 1 0 0 0 0 1 1 1 1 1 1 1 1 1 1 1 2 1 1 1 1 1 1 1 1 1 1 1 1 1 1 1 1 0 0 1 1 1 1 1 1 1 1 1 0 1 1
1 1 0 0 0 0 0 1 1 1 1 1 1 1 1 1 1 2 2 2 1 1 1 1 1 1 1 1 1 1 1 1 1 1 1 0 0 0 1 1 1 1 1 1 1 1 1 1 1
1 1 0 0 0 0 0 1 1 1 1 1 1 1 1 1 2 3 3 2 2 1 1 1 1 1 1 1 0 0 1 1 0 0 0 0 0 0 0 1 1 1 1 1 1 1 1 1 1
1 1 0 0 0 0 0 1 1 1 1 1 1 2 1 1 2 3 3 2 2 2 1 1 1 1 1 1 0 0 0 0 0 0 0 0 0 0 0 0 1 0 0 1 1 1 1 1 1
1 1 1 1 1 1 1 1 1 1 1 1 1 2 1 1 2 3 3 2 2 2 2 1 1 1 1 1 0 0 0 0 0 0 0 0 0 1 1 0 0 0 0 0 0 0 1 1 1
1 1 1 1 1 1 1 1 1 1 1 1 1 2 2 2 2 3 3 2 1 2 2 1 1 1 1 1 0 0 0 0 0 0 0 0 0 1 0 0 0 0 0 0 0 0 1 1 1
1 1 1 1 1 1 1 1 2 2 1 1 1 2 2 2 2 3 3 2 2 2 2 2 1 1 1 1 1 1 1 1 1 0 0 0 0 0 0 0 0 0 0 0 0 0 0 1 1
1 1 1 1 1 1 1 1 2 2 2 2 1 2 2 3 3 3 2 2 2 2 2 2 2 1 1 1 1 1 1 1 1 0 0 0 0 0 0 0 0 0 0 0 0 0 0 1 1
1 1 1 1 1 1 1 1 2 2 2 2 2 2 3 4 4 3 2 2 2 2 2 2 2 2 1 1 1 1 1 1 1 1 0 0 0 0 0 0 0 0 0 0 0 0 0 0 0
1 1 1 1 1 1 1 1 2 2 2 2 2 2 4 5 4 3 2 2 2 1 2 2 2 2 1 1 1 1 1 1 1 1 0 0 0 0 0 0 0 0 0 0 0 0 0 0 0
0 0 1 1 1 1 2 2 2 2 2 2 2 3 3 4 4 3 2 2 2 2 2 2 2 2 2 1 1 1 1 1 1 1 0 0 0 0 0 0 0 0 0 0 0 0 0 0 0
0 0 0 0 1 1 2 2 2 2 2 3 3 3 4 5 4 3 3 3 2 2 2 2 2 2 2 2 1 1 1 1 1 1 0 0 0 0 0 0 0 0 0 0 0 0 0 0 0
0 0 0 0 1 1 2 2 2 2 2 3 3 4 5 6 7 5 4 3 3 3 2 2 2 3 2 2 2 1 1 1 1 1 1 1 1 1 1 1 0 0 0 0 0 0 0 0 0
0 0 0 0 1 1 2 2 2 2 2 2 3 4 5 6 7 7 4 3 4 4 3 2 3 4 4 3 2 2 1 1 1 1 1 1 1 1 1 1 0 0 0 0 0 0 0 0 1
0 0 0 0 0 1 1 2 2 3 3 3 3 3 4 4 5 6 6 5 4 4 3 3 3 4 5 4 4 3 2 2 2 1 1 1 1 1 1 1 0 0 0 0 0 0 1 1 1
0 0 0 0 0 0 1 1 2 3 4 3 3 3 3 3 4 5 6 6 4 4 4 4 4 4 5 6 5 4 3 2 2 1 1 1 1 1 1 1 1 0 0 1 1 1 1 1 1
0 0 0 0 0 0 0 1 1 2 3 3 3 3 4 3 4 5 6 6 4 4 4 5 5 5 6 6 6 5 3 2 2 1 1 1 1 1 1 1 1 1 1 1 1 1 1 1 1
0 0 0 0 0 0 0 0 1 1 2 2 2 3 4 4 4 5 6 5 4 4 5 5 7 7 7 7 6 5 4 3 2 2 1 1 1 1 1 1 1 1 1 2 2 2 1 2 2
0 0 0 0 0 0 0 0 0 1 1 2 2 3 5 5 5 5 5 5 5 5 5 6 7 8 8 8 7 6 4 4 3 2 2 1 1 1 1 1 1 1 2 3 3 2 2 2 2
0 0 0 0 0 0 0 0 0 1 2 2 3 4 5 6 7 6 5 5 6 6 6 6 7 7 8 8 8 7 6 5 4 3 3 2 1 1 2 2 2 2 3 3 3 2 2 2 2
0 0 0 0 0 0 0 0 0 1 2 2 3 4 6 7 7 6 5 5 5 5 5 5 6 7 8 9 9 8 7 6 5 4 3 2 2 2 2 3 3 3 3 3 3 2 2 2 2
0 0 0 0 0 0 0 0 1 1 2 3 3 4 6 6 6 5 5 4 4 4 4 5 6 7 9 11 11 9 9 8 6 5 4 3 2 2 3 3 3 2 2 2 2 2 2 2 2
0 0 0 0 0 0 0 0 1 1 2 3 3 5 6 6 5 5 5 4 4 4 4 5 6 8 10 12 12 11 10 9 7 5 4 3 3 3 3 3 2 2 2 2 2 2 2 3 3
Wind_Speed
9 6 3 1 1 3 4 4 6 6 6 7 10 10 9 7 5 6 3 9 10 9 7 10 13 14 15 15 15 15 16 16 16 15 15 15 15 15 15 14 14 14 14 13 13 13 13 12 12
6 5 2 1 3 4 3 5 8 8 10 10 11 10 9 8 8 9 6 10 11 9 7 9 13 14 15 15 15 15 15 15 15 15 15 15 14 14 14 14 13 13 12 12 12 12 11 11 11
5 4 1 2 1 4 4 5 10 11 10 7 7 7 6 6 7 6 8 12 10 8 6 9 14 15 15 14 14 14 14 15 15 15 14 14 14 13 13 13 13 12 11 11 11 11 10 10 9
2 1 1 2 3 3 6 7 11 12 9 8 9 8 6 5 5 9 13 13 12 8 7 9 14 14 14 14 14 14 14 14 14 14 13 13 13 13 13 12 12 11 11 10 10 10 9 9 8
1 2 3 2 3 3 5 9 10 10 6 8 10 8 5 4 12 15 13 13 12 8 7 8 13 14 14 14 13 13 13 13 13 12 12 12 12 12 12 12 11 11 10 10 9 9 8 8 7
1 2 3 2 4 4 6 9 11 13 12 11 10 8 4 7 13 13 12 11 11 10 7 8 13 13 13 13 13 13 12 12 12 12 11 11 11 11 11 11 10 10 9 9 8 8 7 6 5
2 2 1 3 4 5 5 6 9 11 11 8 9 7 5 8 11 12 11 10 9 9 7 5 6 8 11 12 12 12 12 11 11 11 10 10 10 10 10 10 9 9 9 8 8 8 7 5 4
3 2 0 2 5 4 4 5 7 11 9 10 8 9 8 10 11 12 11 10 9 7 6 5 4 4 5 6 10 11 11 11 10 10 10 9 9 8 8 8 8 8 8 8 8 7 6 5 4
2 2 2 4 6 5 6 7 6 7 11 6 5 7 12 16 14 13 10 8 7 8 5 5 5 4 4 4 8 9 10 9 9 7 9 8 3 3 4 6 8 8 8 7 7 7 6 5 5
4 3 6 5 7 9 9 9 7 7 9 7 10 12 16 15 15 14 13 11 10 8 7 6 6 5 5 5 4 3 4 4 3 3 4 3 3 3 4 5 8 8 7 7 6 6 5 4 2
4 5 3 4 7 9 9 7 5 10 7 11 17 18 17 15 13 13 12 11 10 9 8 7 6 5 5 3 3 2 2 2 3 4 4 3 3 2 2 2 3 3 4 2 2 2 2 2 2
1 3 4 4 5 7 8 8 6 6 9 14 19 19 17 15 13 12 12 11 9 9 8 7 7 6 4 4 3 3 2 2 2 3 5 4 2 2 2 2 2 1 1 1 1 1 2 2 2
1 1 2 5 4 5 8 8 8 7 13 16 17 16 15 14 11 10 11 10 9 9 8 8 7 6 5 4 3 3 3 3 3 3 4 4 3 3 3 2 2 2 1 2 2 2 2 2 2
2 1 1 3 4 5 9 7 7 9 16 17 16 14 14 14 13 11 11 10 9 9 8 7 7 6 5 4 3 3 3 3 3 3 4 4 4 3 3 2 2 2 2 2 2 3 2 1 1
2 3 3 1 5 5 9 5 6 13 17 17 15 14 13 12 12 12 13 12 10 9 8 8 7 6 6 5 3 3 3 3 3 3 4 4 4 4 3 2 2 2 2 2 2 1 1 0 0
5 4 2 3 2 4 8 5 7 14 16 15 15 14 13 11 11 11 12 11 10 10 9 9 8 7 5 4 3 3 3 3 3 3 3 4 5 5 3 2 2 2 1 1 1 1 1 0 0
4 2 1 3 2 4 5 5 9 12 15 14 14 13 13 11 10 10 12 12 12 11 10 8 7 7 6 4 3 3 3 3 3 3 3 4 5 5 4 3 2 2 1 1 1 1 2 1 0
4 2 2 4 4 3 3 4 9 13 14 14 13 12 12 13 13 12 12 12 11 11 10 8 7 7 5 3 2 2 2 2 2 3 3 4 4 4 4 2 2 2 2 1 1 1 1 1 1
5 4 4 5 5 3 4 6 10 12 12 12 12 13 13 13 11 10 11 12 11 10 9 8 7 7 5 3 3 2 2 2 2 2 4 4 4 4 3 2 2 2 2 2 2 1 1 0 1
3 2 3 4 3 3 3 5 8 10 14 15 16 15 13 11 10 10 10 10 10 10 10 9 8 7 6 4 3 3 3 2 2 2 3 4 4 4 4 3 3 2 2 2 1 2 1 0 1
3 3 4 4 3 2 3 2 3 4 5 7 11 12 13 16 15 14 14 13 13 13 12 11 10 8 7 6 3 2 2 1 1 1 2 2 4 4 3 4 3 3 3 2 2 2 3 1 1
4 5 3 2 2 2 3 1 5 5 4 8 11 12 14 14 13 13 13 13 14 14 12 10 10 9 8 7 6 6 5 4 4 3 2 2 3 4 4 4 4 4 3 3 3 3 2 3 1
6 5 2 2 1 1 1 3 6 3 5 8 11 12 12 13 14 14 14 14 12 12 12 10 9 8 8 7 7 6 5 4 3 3 3 3 3 4 4 4 4 4 3 3 3 3 3 3 3
3 4 6 5 5 1 4 4 5 6 11 10 10 12 12 12 13 13 12 10 9 10 10 9 9 8 8 8 7 7 7 5 5 4 4 3 2 2 4 4 4 4 3 4 3 3 3 3 3
4 6 5 6 5 5 4 2 7 8 8 10 12 12 12 12 13 12 11 10 10 11 11 10 10 9 9 8 8 8 7 7 7 6 5 4 3 3 4 4 4 3 3 3 3 3 3 3 3
2 7 7 4 4 6 3 2 6 3 3 4 7 9 9 10 10 11 12 12 12 12 12 12 12 10 10 9 8 7 7 6 5 6 5 5 5 4 5 5 4 4 4 4 3 3 3 2 2
2 2 7 7 2 1 4 4 5 4 4 5 6 6 6 9 10 11 11 11 12 12 13 13 12 10 10 10 9 8 7 6 5 5 5 4 4 5 5 5 5 4 4 4 3 2 3 2 2
4 4 5 5 3 2 4 3 4 3 1 3 4 5 5 6 8 9 10 10 11 11 11 11 11 11 10 10 9 8 7 7 6 5 5 5 5 4 5 5 5 4 4 4 3 3 3 3 2
1 2 4 3 5 6 3 6 6 6 5 5 4 4 6 6 8 8 7 8 8 8 8 9 9 9 9 9 8 8 7 6 6 5 6 5 5 5 5 5 5 5 4 4 4 4 3 3 2
4 4 5 4 3 4 4 8 4 3 3 5 5 4 4 5 6 6 6 7 6 7 7 7 8 9 9 9 9 9 7 7 7 6 6 5 5 5 5 5 5 5 5 4 5 5 4 4 4
Wind_Direction
168 165 167 202 43 54 80 90 96 83 64 63 73 78 78 61 93 122 147 138 134 133 132 127 122 119 118 117 117 115 114 114 114 115 117 119 122 123 123 122 122 123 123 122 122 121 120 118 117
162 170 182 31 67 76 79 107 97 96 118 110 82 77 74 68 82 110 127 138 135 131 129 127 125 123 120 119 118 117 117 116 116 117 118 121 123 124 124 125 126 126 126 125 125 124 123 122 121
182 193 179 60 92 124 118 115 110 104 106 94 84 66 69 94 108 124 141 138 130 125 127 131 129 126 124 122 122 123 122 120 119 120 120 122 123 125 126 127 129 129 128 128 130 129 127 127 127
176 150 46 69 98 126 128 127 115 108 86 75 91 76 69 88 114 130 136 133 128 127 129 133 131 130 129 127 127 127 126 125 124 124 124 125 126 126 127 130 131 131 132 134 136 136 135 136 136
110 74 39 61 100 116 120 123 116 107 92 90 91 91 72 77 113 124 132 133 132 132 131 134 134 133 133 132 132 131 130 130 129 128 128 128 128 129 132 134 136 137 139 139 141 143 143 145 144
74 67 62 92 109 110 117 116 110 103 110 107 101 99 95 124 125 132 132 130 134 136 137 137 138 137 135 136 136 135 134 134 135 135 134 133 132 132 136 138 140 142 145 146 150 152 154 155 154
114 91 138 133 107 112 127 121 120 123 125 128 125 105 122 140 139 138 132 128 130 135 135 134 139 140 141 141 141 140 138 138 141 141 139 139 137 137 139 142 146 149 152 155 160 162 164 169 174
161 103 34 134 116 122 138 111 123 128 121 128 127 130 153 158 143 136 130 128 129 131 133 133 132 131 139 143 144 145 144 144 146 147 148 148 147 146 147 148 153 155 157 163 167 173 179 186 199
154 94 199 180 144 147 139 116 107 103 117 124 117 130 147 146 139 134 129 129 138 142 146 145 145 144 143 148 154 153 152 154 155 157 158 153 144 144 154 160 163 165 169 175 182 188 195 202 212
145 163 214 189 153 148 147 136 132 113 113 106 104 118 138 143 144 145 148 151 155 159 164 162 160 161 159 159 147 153 158 158 158 162 160 153 149 162 167 171 173 178 184 188 198 208 216 220 221
171 189 186 148 152 146 144 136 123 129 133 149 144 148 151 151 152 155 156 160 164 165 166 166 168 169 165 151 152 166 164 164 175 179 171 160 153 160 165 160 179 186 193 199 213 226 239 234 230
194 200 153 148 156 144 145 138 128 144 157 154 150 152 154 157 160 162 162 166 166 165 170 171 171 169 170 156 165 173 167 178 182 183 171 157 152 159 166 169 175 178 182 190 214 220 238 250 250
1 227 163 147 143 144 130 132 130 130 134 141 144 151 158 162 163 164 161 164 165 169 171 174 172 168 167 163 179 168 170 174 169 154 159 155 155 165 169 175 180 185 190 191 205 221 234 244 240
249 260 205 162 152 135 125 122 107 139 141 145 151 160 167 167 167 163 160 163 168 167 165 168 167 166 159 162 170 162 167 168 157 150 157 158 159 161 161 169 177 188 196 200 199 207 212 220 198
357 17 3 119 138 140 114 98 138 150 149 153 161 167 170 170 167 167 167 166 167 164 161 164 165 166 160 160 162 155 163 159 160 163 161 159 160 161 159 163 177 197 197 192 188 195 169 190 117
14 38 15 302 147 161 121 159 170 158 155 161 168 172 173 174 174 171 167 165 163 160 161 169 166 163 162 159 158 154 156 154 160 161 155 156 155 155 150 159 179 186 163 157 158 144 122 77 70
8 359 273 279 255 162 131 172 178 168 163 169 173 175 174 174 177 174 169 165 164 164 163 167 163 164 166 162 153 152 150 158 160 157 154 156 156 156 151 160 177 163 146 159 169 129 140 146 155
256 262 254 244 238 167 143 176 174 176 172 175 174 175 175 180 183 176 172 168 166 165 163 164 165 167 164 154 135 124 132 153 155 158 164 164 164 160 151 159 169 149 134 132 125 130 138 155 170
217 222 249 248 223 170 178 181 187 181 176 177 180 180 182 185 183 176 174 169 165 165 163 165 166 172 165 156 154 150 157 159 159 168 169 169 169 164 157 156 153 150 145 156 154 137 127 109 93
250 269 290 288 240 173 184 202 197 189 188 186 184 185 181 174 172 175 172 171 169 172 172 169 172 175 174 174 169 161 157 165 168 170 171 173 170 172 172 161 157 154 134 128 144 135 124 157 121
270 230 242 262 318 11 90 348 216 212 201 186 184 181 179 179 179 179 180 181 175 180 180 178 179 177 177 169 151 142 109 96 128 168 184 189 175 173 166 165 159 156 153 175 188 168 156 182 239
274 258 242 250 61 294 113 248 266 216 201 190 188 183 185 187 182 183 182 183 184 184 179 175 176 176 175 168 164 166 169 178 192 182 185 192 184 176 172 169 169 167 172 185 196 181 176 166 197
250 262 246 242 144 5 13 129 281 198 206 204 193 187 187 190 185 186 187 188 185 180 176 176 174 178 177 173 175 177 186 187 179 172 179 190 195 190 182 175 171 174 178 183 190 185 183 177 182
288 355 3 34 67 1 255 152 258 218 207 198 190 186 183 184 188 186 183 177 176 175 176 175 175 182 181 178 180 184 187 181 174 181 185 194 199 202 196 182 177 181 184 189 194 188 183 188 185
39 66 20 359 9 260 270 145 241 235 210 187 181 182 182 183 183 178 173 174 175 175 178 178 179 184 184 184 189 191 192 186 188 188 190 189 192 204 208 197 185 186 192 190 183 179 185 187 185
225 137 155 202 234 277 320 222 256 258 164 157 168 171 170 170 171 174 174 174 177 180 183 183 185 187 185 188 195 197 193 193 197 195 191 194 200 205 202 194 191 192 192 193 179 179 191 186 196
199 213 176 150 210 296 295 291 314 12 73 98 107 120 155 169 170 171 174 176 178 182 190 189 184 187 190 191 192 195 195 196 199 198 194 194 199 201 197 194 193 196 196 188 176 191 202 194 203
168 171 85 106 151 263 296 282 250 268 161 122 129 141 153 161 164 168 174 178 181 186 190 189 185 189 193 193 193 194 196 198 200 195 200 196 197 199 188 189 191 194 193 188 185 196 204 201 223
331 55 102 124 156 160 238 269 232 201 175 153 155 151 155 159 163 161 165 175 174 173 182 189 190 190 192 193 194 196 195 199 198 201 202 198 194 189 188 189 190 196 200 195 190 200 199 203 222
174 175 140 150 239 170 175 260 280 177 161 141 139 130 133 150 155 158 159 158 162 168 173 183 193 193 194 193 193 198 197 197 200 207 201 193 197 196 193 189 191 197 195 191 192 202 202 201 210